Tracking 19903 objects as of 16-Oct-2019
HD Live streaming from Space Station
objects crossing your sky now

RISESAT

Track RISESAT now!
10-day predictions


NORAD ID: 43934
Int'l Code: 2019-003C
Perigee: 495.3 km
Apogee: 519.6 km
Inclination: 97.3 °
Period: 94.6 minutes
Semi major axis: 6878 km
RCS: Unknown
Launch date: January 18, 2019
Source: Japan (JPN)
Launch site: KAGOSHIMA SPACE CENTER UNIVERSITY OF TOKYO (KSCUT)
aabbcc
Your satellite tracking list
Your tracking list is empty




NASA's NSSDC Master Catalog

Two Line Element Set (TLE):
1 43934U 19003C   19289.20278485  .00000409  00000-0  20924-4 0  9995
2 43934  97.2687 342.8928 0017658  22.2760  62.1483 15.21846854 41234
Source of the keplerian elements: AFSPC